Regional Weather Roundup
Issued by NWS

Home | Current Version | Previous Version | Text Only | Print | Product List | Glossary On
Versions: 1 2 3 4 5 6 7 8 9 10 11 12 13 14 15 16 17 18 19 20 21 22 23 24 25 26 27 28 29 30 31 32 33 34 35 36 37 38 39 40 41 42 43 44 45 46 47 48 49
000
ASUS46 KSEW 041410
RWRWA

WASHINGTON REGIONAL WEATHER ROUNDUP
NATIONAL WEATHER SERVICE SEATTLE WA
700 AM PDT FRI SEP 04 2015

NOTE:"FAIR" INDICATES FEW OR NO CLOUDS BELOW 12,000 FEET WITH NO
SIGNIFICANT WEATHER AND/OR OBSTRUCTIONS TO VISIBILITY.

WAZ505-507>509-041500-
SEATTLE, TACOMA, EVERETT, AND VICINITY

CITY           SKY/WX    TMP DP  RH WIND       PRES   REMARKS
EVERETT        MOCLDY    48  46  93 VRB3      30.01R
BOEING FIELD   CLOUDY    54  48  80 CALM      30.01R
RENTON         CLOUDY    52  48  86 N6        30.00S
SEATAC AIRPORT CLOUDY    51  48  89 N10       30.01R
JBLM-MCCHORD   CLOUDY    52  52 100 N3        30.00R
PUYALLUP       CLOUDY    52  52 100 CALM      30.00S
BREMERTON      PTCLDY    46  46 100 NE8       30.04R
JBLM-FT LEWIS  CLOUDY    49  48  99 SE5       29.99S
TACOMA NARROWS CLOUDY    52  49  89 N6        30.00S
$$

WAZ001-503-506-510-514-515-041500-
NORTH INTERIOR

CITY           SKY/WX    TMP DP  RH WIND       PRES   REMARKS
BELLINGHAM     PTCLDY    45  45 100 CALM      30.02
FRIDAY HARBOR  PTCLDY    48  47  96 W3        30.03S FOG
EASTSOUND      PTCLDY    48  48 100 CALM      30.01S FOG
PORT ANGELES   MOCLDY    46  44  93 SW8       30.04R
PORT TOWNSEND  CLOUDY    48  48 100 W6        30.03R
NAS WHIDBEY    MOCLDY    48  47  96 NE3       30.06S FOG
ARLINGTON        N/A     45  39  81 CALM      30.03R VSB 3/4
BURLINGTON     CLOUDY    46  46 100 CALM      30.02S
$$

WAZ020-022-039-040-504-511-512-041500-
SOUTHWEST INTERIOR

CITY           SKY/WX    TMP DP  RH WIND       PRES   REMARKS
SHELTON        FOG       41  40  96 SW3       29.99S VSB<1/4
OLYMPIA        CLOUDY    47  46  97 CALM      30.01R
CHEHALIS       FOG       50  50 100 CALM      30.00S VSB 1/2
KELSO          NOT AVBL
VANCOUVER      CLOUDY    48  46  93 N3        29.99R FOG
SCAPPOOSE, OR  FOG       48  48 100 CALM      29.98S VSB 3/4
PORTLAND, OR   CLOUDY    50  49  96 W5        29.99S
$$

WAZ021-516-517-041500-
WASHINGTON COAST

CITY           SKY/WX    TMP DP  RH WIND       PRES   REMARKS
FORKS          CLEAR     42  41  96 CALM      30.01R
HOQUIAM        PTCLDY    45  43  93 E6        30.01R FOG
ASTORIA, OR    FOG       47  46  97 SE5       29.98S VSB 1/4
$$

WAZ019-023-024-040-518-519-041500-
CASCADE MOUNTAINS AND COLUMBIA GORGE

CITY           SKY/WX    TMP DP  RH WIND       PRES   REMARKS
TROUTDALE, OR  PTCLDY    50  45  83 S3        29.98S
THE DALLES, OR PTCLDY    48  42  80 CALM      29.95S
$$

WAZ026-027-041>044-520-521-041500-
EAST SLOPES

CITY           SKY/WX    TMP DP  RH WIND       PRES   REMARKS
OMAK           PTCLDY    50  36  58 N10       29.98S
WENATCHEE      CLOUDY    51  38  60 W8        29.96R
ELLENSBURG     PTCLDY    39  32  76 CALM      29.95R
YAKIMA         MOCLDY    45  36  70 W12       29.95R
$$

WAZ028-034-035-041500-
COLUMBIA BASIN

CITY           SKY/WX    TMP DP  RH WIND       PRES   REMARKS
EPHRATA        MOCLDY    49  33  54 N9        29.93S
MOSES LAKE     PTCLDY    42  30  62 N8        29.95R
PASCO          PTCLDY    40  37  89 N5        29.94R
HERMISTON, OR  PTCLDY    41  35  79 SE3       29.93S
$$

WAZ036>038-041500-
NORTHEAST WASHINGTON

CITY           SKY/WX    TMP DP  RH WIND       PRES   REMARKS
SPOKANE GEIGER PTCLDY    44  35  70 NE5       29.96R
SPOKANE FELTS  MOCLDY    41  36  82 CALM      29.98R
FAIRCHILD AFB  CLEAR     40  33  76 NE6       29.96R
COEURDALENE,ID PTCLDY    43  37  81 NE6       29.97S
DEER PARK      CLEAR     45  33  63 N9        29.97R
$$

WAZ029>033-041500-
SOUTHEAST WASHINGTON

CITY           SKY/WX    TMP DP  RH WIND       PRES   REMARKS
PULLMAN        CLEAR     41  37  86 CALM      29.96S
LEWISTON, ID   CLEAR     43  41  93 CALM      29.96R
WALLA WALLA    CLEAR     45  36  70 SE5       29.93S
PENDLETON, OR  PTCLDY    41  29  62 SE10      29.93S
$$


USA.gov is the U.S. government's official web portal to all federal, state and local government web resources and services.